Weather History for KSLE - November, 2013

Change the Weather History Date:

Friday, November 22, 2013

  Actual Average Record
Temperature  
Mean Temperature 38 °F 44 °F  
Max Temperature 51 °F 51 °F 65 °F (1933)
Min Temperature 24 °F 37 °F 20 °F (1985)
Degree Days  
Heating Degree Days 27 21  
Month to date heating degree days 371 408  
Since 1 July heating degree days 841 940  
Cooling Degree Days 0 0  
Month to date cooling degree days 0 0  
Year to date cooling degree days 502 290  
Moisture  
Dew Point 19 °F    
Average Humidity 55    
Maximum Humidity 81    
Minimum Humidity 29    
Precipitation  
Precipitation 0.00 in 0.24 in 1.57 in (2001)
Month to date precipitation 2.68 4.55  
Year to date precipitation 22.32 30.86  
Snow  
Snow 0.00 in - - ()
Month to date snowfall 0.0  
Snow Depth 0.00 in    
Sea Level Pressure  
Sea Level Pressure 30.48 in    
Wind  
Wind Speed 6 mph (NNW)    
Max Wind Speed 17 mph    
Max Gust Speed 20 mph    
Visibility 10 miles    
Events      
T = Trace of Precipitation, MM = Missing Value Source: NWS Daily Summary

Daily Weather History Graph

Daily Weather History Graph

Search for Another Location

Airport or City:

Trip Planner

Search our weather history database for the weather conditions in past years. The results will help you decide how hot, cold, wet, or windy it might be!

Date:

Astronomy

Nov. 22, 2013 Rise Set
Actual Time 7:19 AM PST 4:36 PM PST
Civil Twilight 6:46 AM PST 5:09 PM PST
Nautical Twilight 6:10 AM PST 5:45 PM PST
Astronomical Twilight 5:35 AM PST 6:20 PM PST
Moon 9:18 PM PST (11/22) 11:02 AM PST (11/22)
Length of Visible Light 10h 22m
Length of Day
9h 17m
Waning Gibbous, 77% of the Moon is Illuminated
Nov 22
Waning Gibbous
Nov 25
Last Quarter
Dec 2
New
Dec 9
First Quarter
Dec 17
Full

Hourly Weather History & Observations

Time (PST) Temp. Windchill Dew Point Humidity Pressure Visibility Wind Dir Wind Speed Gust Speed Precip Events Conditions
12:56 AM 30.9 °F 27.5 °F 18.0 °F 59% 30.55 in 10.0 mi NNW 3.5 mph - N/A   Clear
1:56 AM 33.1 °F 30.0 °F 17.1 °F 52% 30.55 in 10.0 mi NW 3.5 mph - N/A   Clear
2:56 AM 28.0 °F - 19.0 °F 69% 30.55 in 10.0 mi Calm Calm - N/A   Clear
3:56 AM 27.0 °F - 19.0 °F 72% 30.54 in 10.0 mi Calm Calm - N/A   Clear
4:56 AM 27.0 °F - 19.0 °F 72% 30.55 in 10.0 mi Calm Calm - N/A   Clear
5:56 AM 27.0 °F - 19.0 °F 72% 30.54 in 10.0 mi Calm Calm - N/A   Clear
6:56 AM 25.0 °F - 19.0 °F 78% 30.55 in 10.0 mi Calm Calm - N/A   Clear
7:56 AM 26.1 °F - 19.9 °F 78% 30.56 in 10.0 mi Calm Calm - N/A   Clear
8:56 AM 34.0 °F - 23.0 °F 64% 30.55 in 10.0 mi Calm Calm - N/A   Clear
9:56 AM 39.0 °F 34.8 °F 21.0 °F 49% 30.54 in 10.0 mi NNE 5.8 mph - N/A   Clear
10:56 AM 43.0 °F 37.7 °F 19.0 °F 38% 30.53 in 10.0 mi North 9.2 mph - N/A   Clear
11:56 AM 46.9 °F - 19.9 °F 34% 30.50 in 10.0 mi North 9.2 mph - N/A   Clear
12:56 PM 48.9 °F - 19.9 °F 32% 30.47 in 10.0 mi North 11.5 mph - N/A   Clear
1:56 PM 50.0 °F - 19.9 °F 31% 30.44 in 10.0 mi North 12.7 mph - N/A   Clear
2:56 PM 50.0 °F - 21.0 °F 32% 30.43 in 10.0 mi North 12.7 mph - N/A   Clear
3:56 PM 48.0 °F - 19.9 °F 33% 30.42 in 10.0 mi North 11.5 mph - N/A   Clear
4:56 PM 42.1 °F 37.1 °F 21.0 °F 43% 30.41 in 10.0 mi NNW 8.1 mph - N/A   Clear
5:56 PM 39.9 °F 35.1 °F 19.9 °F 45% 30.40 in 10.0 mi NNW 6.9 mph - N/A   Clear
6:56 PM 37.9 °F 32.1 °F 19.0 °F 47% 30.40 in 10.0 mi NNW 8.1 mph - N/A   Clear
7:56 PM 37.0 °F 31.6 °F 19.0 °F 48% 30.40 in 10.0 mi NNW 6.9 mph - N/A   Clear
8:56 PM 37.9 °F 32.1 °F 19.0 °F 47% 30.41 in 10.0 mi NNW 8.1 mph - N/A   Clear
9:56 PM 36.0 °F 30.3 °F 18.0 °F 48% 30.40 in 10.0 mi NNW 6.9 mph - N/A   Clear
10:56 PM 36.0 °F 30.3 °F 19.0 °F 50% 30.38 in 10.0 mi NNW 6.9 mph - N/A   Clear
11:56 PM 36.0 °F 32.1 °F 18.0 °F 48% 30.38 in 10.0 mi NNW 4.6 mph - N/A   Clear